Weather History for Kansas City International, MO

Change the Weather History Date:

Tuesday, August 12, 2014

  Actual Average Record
Temperature  
Mean Temperature 68 °F 78 °F  
Max Temperature 79 °F 88 °F 109 °F (1936)
Min Temperature 57 °F 68 °F 49 °F (2004)
Degree Days  
Heating Degree Days 0 0  
Month to date heating degree days 0 0  
Since 1 June heating degree days 3 9  
Since 1 July heating degree days 2 0  
Cooling Degree Days 3 13  
Month to date cooling degree days 126 157  
Year to date cooling degree days 850 953  
Since 1 June cooling degree days 689 837  
Growing Degree Days 18 (Base 50)    
Moisture  
Dew Point 56 °F    
Average Humidity 70    
Maximum Humidity 93    
Minimum Humidity 47    
Precipitation  
Precipitation 0.00 in 0.12 in 4.63 in (1982)
Month to date precipitation 4.52 1.44  
Year to date precipitation 23.09 24.95  
Snow  
Snow 0.00 in 0.00 in 0.00 in ()
Month to date snowfall 0.0 0.0  
Since 1 June snowfall 0.0 0.0  
Since 1 July snowfall 0.0 0.0  
Snow Depth 0.00 in    
Sea Level Pressure  
Sea Level Pressure 30.08 in    
Wind  
Wind Speed 9 mph (NNW)    
Max Wind Speed 17 mph    
Max Gust Speed 22 mph    
Visibility 10 miles    
Events      
T = Trace of Precipitation, MM = Missing Value Source: NWS Daily Summary

Daily Weather History Graph

Daily Weather History Graph

Search for Another Location

Airport:

Trip Planner

Search our weather history database for the weather conditions in past years. The results will help you decide how hot, cold, wet, or windy it might be!

Date:

Astronomy

Aug. 12, 2014 Rise Set
Actual Time 6:29 AM CDT 8:18 PM CDT
Civil Twilight 6:00 AM CDT 8:46 PM CDT
Nautical Twilight 5:25 AM CDT 9:21 PM CDT
Astronomical Twilight 4:47 AM CDT 9:59 PM CDT
Moon 9:27 PM CDT (8/12) 8:46 AM CDT (8/12)
Length of Visible Light 14h 46m
Length of Day
13h 49m
Waning Gibbous, 94% of the Moon is Illuminated
Aug 12
Waning Gibbous
Aug 17
Last Quarter
Aug 25
New
Sep 2
First Quarter
Sep 8
Full

Hourly Weather History & Observations

Time (CDT) Temp. Dew Point Humidity Pressure Visibility Wind Dir Wind Speed Gust Speed Precip Events Conditions
12:53 AM 62.1 °F 55.9 °F 80% 30.07 in 10.0 mi NW 6.9 mph - N/A   Clear
1:53 AM 63.0 °F 55.9 °F 78% 30.07 in 10.0 mi NNW 9.2 mph - N/A   Clear
2:53 AM 61.0 °F 55.9 °F 83% 30.07 in 10.0 mi NW 8.1 mph - N/A   Clear
3:53 AM 59.0 °F 55.0 °F 87% 30.07 in 10.0 mi West 6.9 mph - N/A   Clear
4:53 AM 57.9 °F 55.9 °F 93% 30.08 in 10.0 mi WNW 8.1 mph - N/A   Clear
5:53 AM 57.9 °F 55.0 °F 90% 30.08 in 10.0 mi WNW 8.1 mph - N/A   Clear
6:53 AM 57.9 °F 55.0 °F 90% 30.10 in 10.0 mi WNW 8.1 mph - N/A   Clear
7:53 AM 61.0 °F 57.0 °F 87% 30.10 in 10.0 mi NW 6.9 mph - N/A   Clear
8:53 AM 66.0 °F 57.0 °F 73% 30.12 in 10.0 mi NW 8.1 mph - N/A   Clear
9:53 AM 70.0 °F 55.9 °F 61% 30.12 in 10.0 mi NNW 8.1 mph - N/A   Clear
10:53 AM 72.0 °F 55.0 °F 55% 30.12 in 10.0 mi NW 13.8 mph - N/A   Partly Cloudy
12:53 PM 75.0 °F 55.9 °F 51% 30.10 in 10.0 mi North 10.4 mph - N/A   Scattered Clouds
1:53 PM 75.9 °F 55.9 °F 50% 30.09 in 10.0 mi NNW 11.5 mph - N/A   Scattered Clouds
2:53 PM 77.0 °F 55.0 °F 47% 30.09 in 10.0 mi NNW 11.5 mph 18.4 mph N/A   Scattered Clouds
3:53 PM 77.0 °F 55.9 °F 48% 30.08 in 10.0 mi North 12.7 mph - N/A   Scattered Clouds
4:53 PM 78.1 °F 57.9 °F 50% 30.07 in 10.0 mi North 12.7 mph - N/A   Scattered Clouds
5:53 PM 77.0 °F 55.0 °F 47% 30.06 in 10.0 mi North 8.1 mph - N/A   Scattered Clouds
6:53 PM 75.9 °F 57.0 °F 52% 30.06 in 10.0 mi NNW 9.2 mph - N/A   Partly Cloudy
7:53 PM 71.1 °F 59.0 °F 66% 30.06 in 10.0 mi North 5.8 mph - N/A   Partly Cloudy
8:53 PM 69.1 °F 57.0 °F 65% 30.06 in 10.0 mi NNW 4.6 mph - N/A   Clear
9:53 PM 68.0 °F 57.0 °F 68% 30.07 in 10.0 mi NW 4.6 mph - N/A   Clear
10:53 PM 64.9 °F 55.9 °F 73% 30.08 in 10.0 mi NNW 6.9 mph - N/A   Clear
11:53 PM 64.9 °F 55.9 °F 73% 30.08 in 10.0 mi NNW 3.5 mph - N/A   Clear